CAPE
4454 4870 4710 4708 4659 4651 4410 3942 3580 3439 3423 3894 3845 4142 3927 3382 3092 2435 2241 2004 1702 1616 1414 1040 887 941 824 754 639 591 468 308 150 175 272 375 318 237 222 222 186 151 120 118 44 46 46 41 24 35 40 62 67 22 16 33 105 235 535 512 460 610 456 510 114 39 16 13 6 10 12 23 20 42 84 65 32 26 22 64 145 177 157 134 94
4462 4783 4849 4752 4732 4751 4407 3914 3716 3519 3748 3755 3747 4045 3656 3334 3084 2432 2372 2173 1736 1482 1426 936 769 824 791 864 798 631 544 548 275 117 270 444 406 314 261 260 313 194 144 149 157 105 86 111 110 67 48 72 47 24 26 19 16 24 30 83 255 322 314 229 209 40 34 21 5 4 10 9 6 17 37 53 112 93 72 88 131 86 96 111 157
4137 4736 4882 4827 4818 4578 4301 3871 3773 3648 3339 3447 3696 3636 3500 3434 3072 2686 2276 2000 1756 1418 1182 846 826 997 956 1005 868 716 690 644 391 196 246 448 450 252 154 201 198 197 186 183 137 108 112 130 92 72 46 31 61 36 19 27 40 45 70 72 62 101 152 180 161 91 56 42 42 22 6 8 16 17 43 46 120 214 288 370 371 167 172 163 172
3652 4582 4897 4759 4672 4470 4164 3956 3435 3207 3103 3372 3443 3286 3149 3247 2920 2543 1872 1472 1689 1399 948 930 974 1284 1032 819 980 844 740 651 462 172 290 554 542 340 246 241 194 158 184 199 161 140 95 101 50 41 26 34 37 52 74 52 87 156 201 272 327 365 399 338 511 550 363 108 86 66 56 46 44 80 87 71 48 109 102 137 287 351 394 323 275
3299 4184 4518 4340 4424 4582 4120 3602 3441 3538 3428 3242 3200 3079 2766 2558 2302 2185 1946 1758 1662 1256 1044 1330 1370 1386 1317 1088 965 941 700 601 340 167 477 634 582 390 288 186 209 236 236 197 161 160 101 91 60 35 36 38 33 75 109 228 364 536 456 418 581 681 674 656 702 748 679 715 488 178 121 199 141 98 156 161 124 103 96 104 163 262 277 315 413
3274 3670 4248 4224 4373 4325 4225 3831 3642 3376 3053 2948 2754 2491 1938 1908 1710 1963 1934 1844 1518 1052 1031 1324 1111 1179 1281 882 798 895 700 479 390 453 555 622 635 556 277 168 156 195 241 230 221 196 170 134 89 44 35 39 52 74 199 289 589 880 997 926 777 575 728 860 937 895 785 727 918 444 142 77 66 154 174 186 126 106 108 87 148 242 246 231 236
3526 3485 4038 4073 4251 4286 4188 3974 3404 2896 2717 2807 2310 1850 1600 1504 1444 1698 1857 1874 1657 1264 848 976 864 1313 1166 798 765 754 550 748 1157 1218 909 762 814 791 442 154 102 130 175 223 171 154 143 178 172 130 73 137 197 220 257 366 521 780 1169 1233 1285 1128 980 988 874 786 666 502 628 784 316 44 28 45 120 276 336 361 322 130 125 196 316 325 268
3820 3838 4021 4118 4267 4286 4157 4025 3238 2892 2583 1879 1558 1435 1309 1217 1345 1432 1695 1811 1723 1259 500 818 1053 1046 1052 896 751 693 914 1330 1477 1466 1389 1238 1082 970 844 426 144 155 252 298 243 140 118 121 54 49 64 114 255 346 445 638 879 973 976 840 863 934 695 322 140 96 180 395 491 403 101 36 40 53 108 263 395 172 156 96 80 150 302 366 372
4036 4058 4178 4238 4304 4385 4177 3121 2674 2573 2045 1824 1741 1448 1217 1000 975 1152 1382 1576 1620 1344 470 726 761 786 1014 938 913 991 1350 1178 1088 1382 1382 1347 1182 1066 824 730 437 218 202 222 247 321 337 210 58 20 20 104 779 1227 1283 1034 1236 403 355 428 432 372 367 377 182 276 387 414 293 176 44 33 51 80 104 165 250 62 115 199 311 290 252 210 332
4215 4221 4226 4333 4304 3870 3390 2946 2733 2434 2100 2041 1985 1952 1792 1323 992 944 1162 1323 1542 1432 890 633 693 547 827 774 716 679 444 378 524 714 927 1128 1178 1034 971 1032 650 250 301 404 340 288 371 399 300 152 746 1344 1607 1104 606 407 184 368 463 272 294 239 164 131 114 246 485 486 174 132 307 197 24 50 61 102 189 128 128 250 250 174 220 278 334
4398 4317 4392 4306 4058 3831 3346 2942 2663 2257 2315 2402 2435 2464 2464 1982 1524 1046 1002 1068 1167 1316 1337 952 322 467 581 456 408 509 476 194 63 271 231 198 640 839 737 909 830 444 444 455 482 440 499 614 954 907 1497 958 890 427 309 138 82 55 23 26 95 291 291 188 138 110 91 113 108 174 212 190 92 124 101 77 84 134 288 562 510 388 435 260 266
4379 4600 4363 4244 4223 3984 3169 2996 2542 2388 2458 2453 2484 2468 2485 2313 1872 1536 1190 908 786 877 1187 1200 622 390 313 202 152 170 562 44 0 30 69 56 62 366 563 744 586 354 322 326 420 599 639 555 1058 1662 1508 1210 736 1042 742 200 86 57 28 22 10 0 7 328 332 137 71 62 58 39 51 49 94 175 256 232 251 567 724 688 461 362 542 384 248
4513 4753 4595 4432 4346 4202 3196 2996 2560 2460 2397 2406 2383 2352 2240 2129 1880 1438 1312 1170 958 732 823 942 901 405 374 404 269 310 594 1 0 41 46 36 33 79 282 641 677 433 412 600 322 422 1216 1504 1928 1547 1351 461 184 224 389 693 652 468 528 362 45 1 0 6 5 167 140 118 138 106 110 127 399 548 536 510 598 527 601 513 361 280 195 203 154
4471 4756 4829 4604 4194 4189 3230 2969 2479 2449 2412 2382 2368 2326 2270 2212 2013 1712 1294 1053 968 889 770 684 724 508 479 823 868 730 394 21 29 51 54 54 59 95 260 548 806 716 554 663 550 1229 1657 2077 1922 1542 1174 834 873 922 898 794 993 1092 1178 564 454 288 491 211 0 28 43 226 400 403 434 499 492 580 571 314 276 246 142 86 134 167 128 141 147
4417 4693 4748 4452 4238 4040 3484 3152 2596 2388 2318 2247 2276 2195 2152 2035 1927 1711 1510 1267 1060 947 816 802 585 778 684 756 600 255 194 146 49 42 42 54 108 154 142 150 228 522 803 1172 1169 1252 1476 1403 931 840 1074 902 998 1146 1319 1072 900 686 270 158 98 70 57 46 13 30 280 368 318 250 90 34 46 42 55 47 33 21 8 28 25 39 52 75 86
4557 4645 4722 4514 4200 3894 3479 3245 2912 2565 2241 2164 2134 2102 2020 1932 1844 1726 1642 1478 1218 1115 1082 947 796 563 716 643 227 40 105 83 84 58 69 84 98 110 181 160 166 274 750 984 1382 1240 1126 766 553 601 793 828 1043 396 358 557 298 139 92 83 66 71 55 14 16 1 1 2 8 4 2 0 0 0 0 0 0 3 6 10 8 16 32 42 83
4610 4662 4586 4145 3708 3627 3477 3400 2975 2669 2236 1955 1964 1912 1944 1818 1639 1553 1466 1300 1141 993 936 865 844 628 444 337 277 242 168 130 45 63 96 136 133 83 77 98 422 551 578 904 664 1056 980 969 712 851 783 1002 791 320 63 0 20 28 78 70 68 74 59 53 65 0 0 0 0 0 0 0 0 0 0 0 0 0 10 8 6 1 21 15 14
4544 4554 4545 4360 4079 3644 3562 3427 2830 2752 2501 2224 1811 1766 1740 1713 1687 1508 1412 1332 1267 1198 1114 1025 860 648 462 288 168 173 144 491 67 97 95 82 78 160 257 356 502 390 613 492 803 1380 913 708 550 436 682 822 354 169 0 0 13 55 98 82 62 46 44 23 5 66 5 0 0 0 0 0 0 0 0 0 0 0 7 12 6 8 10 17 16
4609 4727 4599 4396 3954 3321 3487 3392 2673 2732 2512 2338 2147 1911 1628 1496 1270 1199 1122 1068 1026 978 949 925 812 720 515 379 102 66 58 258 62 54 75 139 170 142 180 259 311 425 472 386 584 452 793 582 339 364 728 266 104 0 0 0 24 77 87 74 28 30 25 5 0 0 0 0 0 1 97 39 49 193 216 71 14 0 28 18 13 12 14 22 20
4720 4576 4268 4266 3818 3204 2979 2670 2572 2588 2507 2308 2113 1821 1697 1184 1180 1127 982 838 756 726 668 558 500 436 421 274 437 472 362 821 49 81 131 120 106 175 188 221 252 266 288 486 209 687 645 820 336 65 0 0 0 0 0 0 15 39 27 8 2 2 18 5 0 0 2 2 2 3 4 3 2 2 2 3 5 16 19 17 21 21 22 20 16
4499 4265 4279 3996 3768 3239 2825 2704 2609 2449 2398 2259 1882 1522 1219 980 952 947 911 831 700 558 446 364 290 257 108 294 593 884 1047 843 312 129 109 112 122 144 152 140 324 570 242 236 161 506 519 692 474 0 0 0 0 0 0 0 0 3 2 0 2 0 0 0 0 0 3 7 6 1 0 0 0 0 0 0 0 1 6 5 7 5 7 8 2
4105 4054 3896 3620 3225 2787 2646 2566 2274 2073 1828 1618 1418 1068 1018 930 828 704 684 589 503 416 312 193 145 7 15 409 565 1188 946 538 1067 261 204 264 319 294 183 142 245 193 225 237 328 174 272 823 233 0 0 0 0 0 0 0 0 0 133 0 0 0 0 0 0 0 0 0 0 0 0 0 0 0 0 0 0 0 0 0 0 0 0 0 0
3608 3590 3329 2848 2233 2016 2260 2186 1850 1310 1144 1098 957 820 824 778 649 560 467 367 277 201 153 125 112 74 154 404 1389 1137 771 431 352 288 231 286 421 354 222 198 211 112 194 256 184 238 586 189 25 0 0 0 0 0 0 0 0 0 0 0 0 0 0 0 0 4 3 2 2 2 2 1 0 0 0 0 0 0 0 0 0 0 0 0 0
3257 3141 2737 2543 2049 1769 1687 1492 1472 870 668 729 642 605 564 500 499 445 374 307 358 332 174 276 87 106 217 996 833 433 262 346 365 350 336 261 244 273 274 244 166 58 270 88 495 188 178 111 13 0 0 0 0 0 0 0 0 0 0 0 0 0 0 0 1 3 0 0 0 0 0 0 0 0 0 0 0 0 0 0 0 0 0 0 0
2956 2684 2325 2052 1693 1365 1274 1347 1153 826 592 524 422 508 448 414 414 356 344 367 311 258 144 206 114 90 470 1278 393 153 274 204 151 191 320 336 351 319 232 113 44 16 24 148 128 104 0 0 0 0 0 0 0 0 0 0 0 0 0 0 0 0 0 0 0 0 0 0 0 0 0 0 0 0 0 0 0 0 0 0 0 0 0 0 0
2549 2304 2013 1584 1264 1160 1240 1087 907 656 516 430 329 290 276 282 233 414 328 235 173 85 170 230 64 294 1054 791 458 232 78 104 222 280 283 258 177 102 89 49 1 0 0 52 0 0 0 0 0 0 0 0 1 1 2 6 0 0 0 0 0 0 0 0 0 0 0 0 0 0 0 0 0 0 0 0 0 0 0 0 0 0 0 0 0
2350 2010 1713 1388 1131 1118 1044 736 682 653 494 375 228 165 97 136 108 219 183 88 83 132 295 790 868 908 690 491 368 275 144 124 185 347 267 130 68 64 0 1 0 0 0 0 0 0 0 0 0 0 0 0 0 0 0 0 0 0 0 0 1 0 0 0 0 0 0 0 0 0 0 0 0 0 0 0 0 0 0 0 0 0 0 2 2
1988 1650 1358 1281 1081 1060 952 714 581 466 428 270 320 234 220 180 227 248 256 294 449 619 820 1077 883 598 404 540 486 404 242 300 490 574 458 148 81 4 5 0 0 0 34 64 76 14 0 0 0 0 0 1 0 0 1 6 5 4 6 3 0 0 0 0 0 0 0 0 0 0 0 0 0 0 0 0 0 0 0 0 0 0 0 2 10
1894 1514 1221 1106 807 848 674 649 616 478 517 692 469 154 559 344 262 478 781 666 853 985 1398 977 896 716 536 548 548 810 692 575 773 745 1216 402 1164 147 166 120 136 238 24 3 34 16 6 1 6 3 6 6 2 4 3 7 10 3 6 7 2 0 0 0 0 0 0 0 0 0 0 0 0 0 0 0 0 0 0 0 0 3 6 13 13
1764 1405 1271 1114 891 844 716 713 739 564 620 804 206 0 0 0 0 0 74 247 707 660 656 804 563 491 629 952 806 784 434 506 755 490 260 0 0 0 0 0 0 8 0 0 0 23 8 0 7 8 8 12 8 8 2 8 12 9 9 3 0 0 0 0 0 0 0 0 0 0 0 0 0 0 0 0 0 0 0 0 0 4 8 12 8
1520 1264 1116 1074 832 869 813 856 921 849 860 689 469 229 0 0 0 0 60 365 328 345 75 291 256 223 307 514 505 503 412 636 554 118 33 0 0 0 0 0 0 0 0 0 0 0 0 4 7 8 4 9 5 1 8 7 8 7 8 1 0 0 0 0 0 0 0 0 0 0 0 0 0 0 0 0 0 0 0 0 0 3 7 14 9
1580 1319 1210 1089 920 957 832 793 784 947 826 532 466 558 410 142 0 0 389 462 408 90 0 0 1 2 67 583 16 0 60 345 117 0 0 0 0 0 0 0 0 0 0 0 19 11 0 4 8 12 8 4 8 8 2 5 7 6 2 1 0 0 0 0 0 0 0 0 0 0 0 0 0 0 0 0 0 0 0 0 0 0 4 4 0
1445 1372 1314 1130 868 832 740 804 800 720 882 731 600 555 607 517 236 0 0 163 0 0 0 0 0 0 0 0 0 0 17 154 10 0 0 0 0 0 0 0 0 0 0 0 0 0 0 0 0 5 3 7 6 8 8 1 3 0 0 0 0 0 0 0 0 0 0 0 0 0 0 0 0 0 0 0 0 0 0 0 0 0 0 0 0
1421 1410 1485 1543 1433 1342 1322 982 881 818 756 839 758 486 637 467 448 208 2 0 0 0 0 0 0 0 0 0 0 0 31 17 0 0 0 0 0 0 0 0 0 0 0 0 0 0 0 0 4 7 8 5 3 2 4 4 5 0 1 0 0 0 0 0 0 0 0 0 0 0 0 0 0 0 0 0 0 0 0 0 0 0 0 3 10
1831 1572 1568 1582 1384 1357 1106 1278 1074 982 860 862 849 748 628 664 520 328 171 101 147 24 0 0 0 0 0 0 0 0 0 0 0 0 0 0 0 0 0 0 0 0 0 0 0 0 0 3 6 4 4 3 4 3 3 4 0 0 0 0 0 0 0 0 0 0 0 0 0 0 0 0 0 0 0 0 0 0 0 0 0 0 0 3 7
1394 1186 1525 1278 1055 947 883 1015 1016 1110 1193 1102 970 528 542 600 442 367 243 432 382 431 74 1 0 0 0 0 0 0 0 0 0 0 0 0 0 0 0 0 0 0 0 0 0 0 0 5 4 4 4 5 4 3 4 0 0 0 0 0 0 0 0 0 0 0 0 0 0 0 0 0 0 0 0 0 0 0 0 0 0 0 0 2 1
566 455 550 636 666 732 855 1134 1130 1096 832 827 708 656 600 331 157 254 398 400 366 536 278 0 19 0 0 0 0 0 0 0 0 0 0 0 0 0 0 0 0 1 4 6 4 3 3 5 4 6 6 4 6 1 0 0 0 0 0 0 0 0 0 0 0 0 0 0 0 0 0 0 0 0 0 0 0 0 0 0 0 0 0 0 0
368 422 529 494 561 768 1021 900 764 153 628 644 803 677 336 416 481 382 334 378 538 541 417 69 0 0 0 0 0 0 0 0 0 0 0 0 0 0 0 0 0 1 5 5 2 8 6 5 10 8 6 3 0 1 0 0 0 0 0 0 0 0 0 0 0 0 0 0 0 0 0 0 0 0 0 0 0 0 0 0 0 0 0 0 0
777 310 409 594 568 505 552 524 603 112 184 114 359 344 326 454 522 446 441 589 557 589 524 260 114 128 63 0 0 0 0 0 0 0 0 0 0 0 0 0 5 5 6 7 11 8 4 5 7 3 0 0 0 0 0 0 0 0 0 0 0 0 0 0 0 0 0 0 0 0 0 0 0 0 0 0 0 0 0 0 0 0 0 0 0
417 496 180 154 265 337 696 706 416 8 381 326 449 489 510 596 711 676 687 782 657 612 550 378 240 223 104 0 0 0 0 0 0 0 0 0 0 0 0 3 5 8 8 10 1 0 0 0 0 0 0 0 0 0 0 0 0 0 0 0 0 0 0 0 0 0 0 0 0 0 0 0 0 0 0 0 0 0 0 0 0 0 0 0 0
709 865 375 217 414 506 689 216 244 478 550 505 632 665 724 664 649 566 620 605 640 576 550 452 416 359 139 0 0 0 0 0 0 0 0 0 0 4 6 4 8 11 8 6 1 0 0 0 0 0 0 0 0 0 0 0 0 0 0 0 0 0 0 0 0 0 0 0 0 0 0 0 0 0 0 0 0 0 0 0 0 0 0 0 0
778 728 571 495 346 484 287 438 651 634 666 616 634 748 664 596 595 541 580 563 466 447 387 268 208 253 4 0 0 0 0 0 0 1 2 5 4 6 6 12 12 12 9 6 4 0 0 0 0 0 0 0 0 0 0 0 0 0 0 0 0 0 0 0 0 0 0 0 0 0 0 0 0 0 0 0 0 0 0 0 0 0 0 0 0
914 754 744 650 580 519 564 624 600 640 688 820 953 794 714 704 688 542 379 327 275 188 168 121 136 83 0 0 0 0 0 0 1 1 1 4 3 4 4 7 10 12 12 1 0 0 0 0 0 0 0 0 0 0 0 0 0 0 0 0 0 0 0 0 0 0 0 0 0 0 0 0 0 0 0 0 0 0 0 0 0 0 0 0 0
689 642 652 620 696 744 696 800 834 875 923 702 461 326 311 206 400 332 323 221 134 142 122 117 31 13 0 0 0 0 0 0 0 1 3 3 3 0 3 10 16 10 1 0 0 0 0 0 0 0 0 0 0 0 0 0 0 0 0 0 0 0 0 0 0 0 0 0 0 0 0 0 0 0 0 0 0 0 0 0 0 0 0 0 0
786 642 636 783 876 860 773 753 540 450 268 248 248 162 195 206 160 152 93 55 52 23 30 28 25 12 11 0 0 0 0 0 0 1 12 0 2 5 7 13 9 0 0 0 0 0 0 0 0 0 0 0 0 0 0 0 0 0 0 0 0 0 0 0 0 0 0 0 0 0 0 0 0 0 0 0 0 0 0 0 0 0 0 0 0
514 468 426 444 441 502 508 421 420 422 418 282 171 144 87 82 82 83 24 8 0 15 28 20 16 6 18 9 2 0 0 0 1 8 11 8 2 3 10 0 1 1 0 0 0 0 0 0 0 0 0 0 0 0 0 0 0 0 0 0 0 0 0 0 0 0 0 0 0 0 0 0 0 0 0 0 0 0 0 0 0 0 0 0 0
499 257 191 167 196 238 312 200 120 82 28 90 78 46 18 19 29 19 1 4 1 0 0 5 9 6 0 5 8 8 2 4 7 34 29 23 8 4 4 0 0 0 0 0 0 0 0 0 0 0 0 0 0 0 0 0 0 0 0 0 0 0 0 0 0 0 0 0 0 0 0 0 0 0 0 0 0 0 0 0 0 0 0 0 0
108 158 219 250 229 144 90 121 55 27 39 0 0 0 0 0 0 0 0 2 0 0 0 6 13 9 10 6 4 0 2 5 3 6 6 19 3 7 2 0 0 0 0 0 0 0 0 0 0 0 0 0 0 0 0 0 0 0 0 0 0 0 0 0 0 0 0 0 0 0 0 0 0 0 0 0 0 0 0 0 0 0 0 0 0
116 112 95 66 42 89 42 25 4 1 0 0 0 0 0 0 0 0 0 0 0 1 0 2 6 5 7 9 7 7 6 2 0 4 6 4 9 12 2 0 0 0 0 0 0 0 0 0 0 0 0 0 0 0 0 0 0 0 0 0 0 0 0 0 0 0 0 0 0 0 0 0 0 0 0 0 0 0 0 0 0 0 0 0 0
35 95 84 50 22 28 13 12 4 0 0 0 0 0 0 0 0 0 0 1 2 8 10 8 9 7 9 11 15 17 16 14 10 4 5 24 21 14 1 0 0 0 0 0 0 0 0 0 0 0 0 0 0 0 0 0 0 0 0 0 0 0 0 0 0 0 0 0 0 0 0 0 0 0 0 0 0 0 0 0 0 0 0 0 0
18 19 6 4 5 7 2 0 0 0 0 0 0 0 0 0 0 0 0 0 0 0 4 11 17 15 20 18 14 13 19 22 20 17 20 21 20 13 2 0 0 0 0 0 0 0 0 0 0 0 0 0 0 0 0 0 0 0 0 0 0 0 0 0 0 0 0 0 0 0 0 0 0 0 0 0 0 0 0 0 0 0 0 0 0
Wind_Speed
11 11 12 13 14 16 18 20 21 21 21 23 24 27 30 32 32 31 31 31 32 34 35 36 35 34 34 35 33 32 33 34 33 33 34 33 31 29 26 25 25 25 26 24 nan nan nan nan nan nan nan nan nan nan nan nan 23 24 25 26 28 31 33 33 32 nan nan nan nan nan nan nan nan nan nan nan nan nan nan nan 44 43 42 39 nan
10 12 13 14 16 18 20 22 23 24 25 26 27 29 30 32 33 34 34 34 36 36 35 36 36 36 37 37 34 34 37 38 35 34 34 34 34 33 31 28 27 26 26 25 24 25 nan 23 22 nan nan nan nan nan nan nan nan nan nan nan 30 32 34 33 34 nan nan nan nan nan nan nan nan nan nan nan 39 nan nan nan 45 nan nan 43 40
13 13 14 15 17 19 21 23 25 27 28 28 29 30 31 32 33 34 34 35 37 37 36 35 37 38 38 38 36 36 39 39 38 36 36 35 35 34 33 31 30 29 28 25 24 24 23 23 nan nan nan nan nan nan nan nan nan nan nan nan nan 32 33 36 36 nan nan nan nan nan nan nan nan nan nan nan 40 42 44 45 45 46 46 44 43
13 15 16 17 19 21 23 25 28 29 30 28 29 29 28 30 34 35 34 34 36 38 37 37 37 39 39 37 39 40 40 39 40 39 39 39 39 37 34 33 32 30 28 26 23 23 nan 22 nan nan nan nan nan nan nan nan nan 25 26 30 32 31 34 37 38 36 35 33 nan nan nan nan nan nan nan nan nan 42 44 45 46 47 45 44 42
14 16 17 19 22 24 27 27 28 29 29 27 29 29 29 32 35 36 36 34 36 40 40 37 36 37 38 38 40 42 43 43 41 41 44 45 44 41 37 34 32 31 30 27 24 22 22 nan nan nan nan nan nan nan 28 27 27 27 29 30 31 32 35 37 36 35 34 33 34 36 35 37 38 nan 39 39 41 42 nan 45 46 47 45 42 41
15 16 18 20 23 26 26 27 29 31 30 29 31 35 35 37 38 39 42 43 43 46 47 42 40 42 44 44 44 44 46 47 46 46 47 49 48 47 43 36 31 31 30 29 25 23 22 22 nan nan nan nan nan nan 27 26 27 28 29 29 30 32 35 35 35 34 34 34 34 33 36 nan nan 38 38 39 40 41 43 nan 45 45 42 39 37
15 16 18 21 23 24 25 27 29 32 33 34 40 42 41 41 43 46 50 50 49 49 46 44 44 45 47 47 47 46 46 48 49 50 50 50 50 51 47 38 30 30 31 29 27 25 24 25 25 24 nan 24 24 25 26 26 29 28 28 28 30 33 34 35 34 33 34 33 34 35 36 nan nan nan 39 38 40 42 42 42 41 41 40 37 35
17 16 18 20 21 23 24 27 30 33 38 41 46 47 42 44 46 46 48 49 48 47 44 44 45 46 47 47 48 46 48 51 52 51 52 53 54 54 50 38 29 28 30 30 28 26 25 26 nan nan nan 24 24 25 27 28 29 28 28 29 31 32 32 32 33 nan 34 35 35 34 36 nan nan nan 39 40 41 42 43 nan nan 34 35 35 32
17 19 19 19 20 22 24 28 32 38 43 42 47 45 39 41 44 45 44 47 45 43 42 45 47 48 48 50 49 47 47 51 52 53 54 57 60 58 50 37 29 29 29 28 28 27 27 28 nan nan nan 23 28 30 30 33 30 27 27 29 31 30 30 31 32 34 36 36 35 36 nan nan nan nan 39 40 40 nan 38 35 33 31 31 29 28
19 20 21 20 21 22 27 35 39 41 46 47 49 48 41 38 39 40 41 44 45 47 47 50 52 50 49 49 46 43 44 46 49 53 52 54 58 57 50 38 31 31 29 28 28 27 27 28 29 25 26 30 34 32 30 31 32 30 29 30 29 29 30 31 33 36 36 35 36 37 37 37 nan nan nan 38 38 35 32 32 29 29 28 25 23
19 20 22 22 25 27 32 36 40 41 45 46 45 44 41 38 39 40 43 44 47 49 49 51 51 49 47 45 41 38 39 39 nan 46 43 43 45 46 44 38 35 34 31 29 29 27 25 27 29 28 32 32 31 30 29 32 nan nan nan nan nan 32 31 31 34 36 nan 35 36 37 38 35 nan 37 38 nan nan 32 31 31 28 26 25 24 22
20 23 24 25 28 30 32 38 41 43 46 48 46 46 44 43 44 47 49 50 50 50 48 49 51 49 44 40 37 37 35 nan nan nan nan nan nan 36 39 41 37 32 31 30 31 28 24 26 29 30 28 31 31 29 31 34 nan nan nan nan nan nan nan 35 35 35 nan nan nan nan nan nan nan 36 37 34 31 31 30 28 26 25 25 23 23
24 25 27 28 29 31 33 40 43 46 48 49 48 48 48 48 49 51 54 55 55 52 48 50 50 45 38 34 35 36 32 nan nan nan nan nan nan nan 34 38 36 31 29 31 30 26 26 28 29 28 27 30 27 26 30 36 42 40 39 41 nan nan nan nan nan 38 36 37 37 37 38 37 35 36 35 31 30 28 28 26 26 25 23 22 21
27 28 29 31 30 31 35 41 44 47 47 48 49 51 51 51 51 53 54 56 56 52 48 48 47 42 37 35 33 32 31 nan nan nan nan nan nan nan 28 30 34 33 32 32 29 26 26 28 26 24 24 26 29 31 35 37 36 39 43 41 39 39 43 44 nan nan nan 38 38 37 37 37 35 34 31 28 27 28 27 nan 23 22 22 21 20
29 30 31 32 33 33 36 41 44 46 47 47 49 50 50 50 51 53 54 55 53 49 46 46 43 41 40 37 33 31 30 33 nan nan nan nan 34 31 27 26 31 33 33 32 28 25 25 28 24 20 24 27 32 37 38 39 39 39 38 36 nan nan nan nan nan nan 42 40 37 36 nan nan nan nan nan nan nan nan nan nan nan nan nan nan nan
32 32 33 34 35 36 37 41 42 44 46 46 47 48 48 48 50 52 52 51 48 45 43 43 44 43 41 38 34 nan 31 nan nan nan nan nan nan 31 26 27 33 34 32 28 27 26 30 27 22 21 25 32 47 48 45 42 41 39 nan nan nan nan nan nan nan nan nan nan nan nan nan nan nan nan nan nan nan nan nan nan nan nan nan nan nan
35 35 35 35 37 38 39 43 44 45 46 47 46 46 46 47 49 50 49 49 48 47 46 46 44 43 42 39 36 33 31 35 nan nan nan 35 34 nan nan nan 36 34 28 25 21 24 28 25 24 26 31 39 52 51 nan nan nan nan nan nan nan nan nan nan nan nan nan nan nan nan nan nan nan nan nan nan nan nan nan nan nan nan nan nan nan
39 39 38 39 39 40 42 46 46 47 48 49 47 46 45 45 45 46 44 44 44 44 44 41 40 40 40 38 34 32 30 35 nan nan nan nan nan 25 26 31 34 30 24 20 20 27 26 23 25 30 37 48 54 53 nan nan nan nan nan nan nan nan nan nan nan nan nan nan nan nan nan nan nan nan nan nan nan nan nan nan nan nan nan nan nan
43 43 42 43 43 42 42 46 48 50 50 51 50 47 47 48 47 48 46 47 48 48 46 41 37 35 36 35 34 nan nan 33 nan nan nan 39 32 25 26 29 29 24 21 19 23 25 28 31 34 38 48 56 56 nan nan nan nan nan nan nan nan nan nan nan nan nan nan nan nan nan nan nan nan 31 29 nan nan nan nan nan nan nan nan nan nan
47 46 46 46 46 45 44 45 48 51 53 54 54 49 48 46 46 48 47 48 48 47 46 43 38 34 32 32 33 32 31 33 nan nan 40 41 37 28 25 29 27 21 19 20 20 24 27 34 46 nan nan nan nan nan nan nan nan nan nan nan nan nan nan nan nan nan nan nan nan nan nan nan nan nan nan nan nan nan nan nan nan nan nan nan nan
50 50 49 49 49 48 47 48 51 53 56 58 57 52 48 46 48 49 49 47 47 44 42 39 36 34 33 33 33 34 35 36 37 39 38 39 36 29 25 24 23 23 23 21 20 26 31 38 46 nan nan nan nan nan nan nan nan nan nan nan nan nan nan nan nan nan nan nan nan nan nan nan nan nan nan nan nan nan nan nan nan nan nan nan nan
52 52 52 52 51 50 49 51 53 57 60 61 58 53 49 49 49 49 46 44 44 43 41 37 35 nan nan 36 35 34 37 36 35 36 35 33 34 28 22 20 23 24 24 26 27 28 34 42 47 nan nan nan nan nan nan nan nan nan 48 nan nan nan nan nan nan nan nan nan nan nan nan nan nan nan nan nan nan nan nan nan nan nan nan nan nan
53 53 54 54 53 52 51 53 55 55 56 56 52 49 47 46 46 45 43 43 42 41 40 37 36 nan 37 38 39 38 37 35 35 34 33 30 28 25 20 20 25 25 28 34 35 33 38 41 nan nan nan nan nan nan nan nan nan nan nan nan nan nan nan nan nan nan nan nan nan nan nan nan nan nan nan nan nan nan nan nan nan nan nan nan nan
54 54 56 57 57 55 53 52 54 54 55 54 51 47 43 41 41 40 39 40 40 40 40 40 nan 41 42 43 42 41 40 37 34 31 29 28 29 27 25 26 27 nan 33 nan 40 38 39 43 nan nan nan nan nan nan nan nan nan nan nan nan nan nan nan nan nan nan nan nan nan nan nan nan nan nan nan nan nan nan nan nan nan nan nan nan nan
55 54 56 58 58 56 54 53 54 54 53 51 48 44 41 38 37 38 39 39 40 41 42 42 43 nan 44 45 45 43 41 37 31 28 29 30 33 32 33 39 nan nan nan 41 42 46 nan nan nan nan nan nan nan nan nan nan nan nan nan nan nan nan nan nan nan nan nan nan nan nan nan nan nan nan nan nan nan nan nan nan nan nan nan nan nan
56 53 54 55 56 55 56 55 53 52 50 47 43 40 39 37 37 38 39 40 41 nan 43 44 nan 45 43 43 45 43 nan 36 29 26 28 33 35 40 nan nan nan nan nan nan nan nan nan nan nan nan nan nan nan nan nan nan nan nan nan nan nan nan nan nan nan nan nan nan nan nan nan nan nan nan nan nan nan nan nan nan nan nan nan nan nan
55 53 53 55 55 55 54 52 50 49 47 44 40 38 nan 36 38 38 39 nan nan 44 45 45 46 46 43 42 43 43 41 36 30 27 30 33 nan nan nan nan nan nan nan nan nan nan nan nan nan nan nan nan nan nan nan nan nan nan nan nan nan nan nan nan nan nan nan nan nan nan nan nan nan nan nan nan nan nan nan nan nan nan nan nan nan
53 54 56 56 55 53 51 51 49 46 45 42 41 40 41 39 39 39 40 42 44 46 46 47 46 45 44 45 45 43 40 35 31 31 34 37 nan nan nan nan nan nan nan nan nan nan nan nan nan nan nan nan nan nan nan nan nan nan nan nan nan nan nan nan nan nan nan nan nan nan nan nan nan nan nan nan nan nan nan nan nan nan nan nan nan
54 57 57 55 53 50 49 48 45 45 44 43 42 41 39 38 39 42 42 41 42 42 45 46 45 44 44 45 45 41 37 33 32 36 40 40 40 39 38 38 39 41 nan nan nan nan nan nan nan nan nan nan nan nan nan nan nan nan nan nan nan nan nan nan nan nan nan nan nan nan nan nan nan nan nan nan nan nan nan nan nan nan nan nan nan
56 57 55 52 51 49 47 45 44 44 44 44 46 nan nan nan nan nan nan 45 46 44 43 42 41 43 43 42 38 37 34 38 50 50 47 nan nan nan nan nan nan nan nan nan nan nan nan nan nan nan nan nan nan nan nan nan nan nan nan nan nan nan nan nan nan nan nan nan nan nan nan nan nan nan nan nan nan nan nan nan nan nan nan nan nan
55 55 53 50 50 48 46 44 44 42 43 45 45 46 nan nan nan nan nan 47 46 45 nan 43 43 42 42 45 46 46 48 53 53 51 nan nan nan nan nan nan nan nan nan nan nan nan nan nan nan nan nan nan nan nan nan nan nan nan nan nan nan nan nan nan nan nan nan nan nan nan nan nan nan nan nan nan nan nan nan nan nan nan nan nan nan
53 52 50 51 50 45 43 43 42 43 44 44 45 46 47 48 nan nan 49 48 48 nan nan nan nan nan nan 44 nan nan nan 48 51 nan nan nan nan nan nan nan nan nan nan nan nan nan nan nan nan nan nan nan nan nan nan nan nan nan nan nan nan nan nan nan nan nan nan nan nan nan nan nan nan nan nan nan nan nan nan nan nan nan nan nan nan
50 50 48 49 47 44 43 44 43 44 45 46 46 47 48 49 50 nan nan 52 nan nan nan nan nan nan nan nan nan nan nan 47 nan nan nan nan nan nan nan nan nan nan nan nan nan nan nan nan nan nan nan nan nan nan nan nan nan nan nan nan nan nan nan nan nan nan nan nan nan nan nan nan nan nan nan nan nan nan nan nan nan nan nan nan nan
48 48 47 47 45 44 43 45 44 45 48 48 48 49 48 48 50 52 nan nan nan nan nan nan nan nan nan nan nan nan nan nan nan nan nan nan nan nan nan nan nan nan nan nan nan nan nan nan nan nan nan nan nan nan nan nan nan nan nan nan nan nan nan nan nan nan nan nan nan nan nan nan nan nan nan nan nan nan nan nan nan nan nan nan nan
48 50 50 47 46 46 45 46 46 48 50 50 50 49 49 49 50 50 48 46 45 nan nan nan nan nan nan nan nan nan nan nan nan nan nan nan nan nan nan nan nan nan nan nan nan nan nan nan nan nan nan nan nan nan nan nan nan nan nan nan nan nan nan nan nan nan nan nan nan nan nan nan nan nan nan nan nan nan nan nan nan nan nan nan nan
47 47 47 46 45 45 46 47 49 51 51 50 50 49 49 48 47 46 45 43 43 45 nan nan nan nan nan nan nan nan nan nan nan nan nan nan nan nan nan nan nan nan nan nan nan nan nan nan nan nan nan nan nan nan nan nan nan nan nan nan nan nan nan nan nan nan nan nan nan nan nan nan nan nan nan nan nan nan nan nan nan nan nan nan nan
45 46 46 45 45 47 49 50 51 52 51 50 49 48 46 45 43 43 43 42 43 44 47 nan nan nan nan nan nan nan nan nan nan nan nan nan nan nan nan nan nan nan nan nan nan nan nan nan nan nan nan nan nan nan nan nan nan nan nan nan nan nan nan nan nan nan nan nan nan nan nan nan nan nan nan nan nan nan nan nan nan nan nan nan nan
44 44 44 46 47 49 50 50 53 55 51 49 47 45 44 43 42 41 41 42 43 43 43 nan nan nan nan nan nan nan nan nan nan nan nan nan nan nan nan nan nan nan nan nan nan nan nan nan nan nan nan nan nan nan nan nan nan nan nan nan nan nan nan nan nan nan nan nan nan nan nan nan nan nan nan nan nan nan nan nan nan nan nan nan nan
46 50 51 49 47 47 48 50 52 48 47 44 44 42 42 42 42 41 40 41 41 39 37 36 34 34 nan nan nan nan nan nan nan nan nan nan nan nan nan nan nan nan nan nan nan nan nan nan nan nan nan nan nan nan nan nan nan nan nan nan nan nan nan nan nan nan nan nan nan nan nan nan nan nan nan nan nan nan nan nan nan nan nan nan nan
46 46 48 46 45 46 47 49 48 nan 43 41 43 44 45 42 40 39 39 39 37 34 32 32 33 35 40 nan nan nan nan nan nan nan nan nan nan nan nan nan nan nan nan nan nan nan nan nan nan nan nan nan nan nan nan nan nan nan nan nan nan nan nan nan nan nan nan nan nan nan nan nan nan nan nan nan nan nan nan nan nan nan nan nan nan
46 48 49 45 47 47 47 46 46 44 44 45 47 47 45 41 38 38 37 36 33 30 29 31 34 36 39 nan nan nan nan nan nan nan nan nan nan nan nan nan nan nan nan nan nan nan nan nan nan nan nan nan nan nan nan nan nan nan nan nan nan nan nan nan nan nan nan nan nan nan nan nan nan nan nan nan nan nan nan nan nan nan nan nan nan
46 47 46 46 45 45 47 46 47 48 48 48 47 44 42 39 39 38 36 31 28 27 28 29 31 33 nan nan nan nan nan nan nan nan nan nan nan nan nan nan nan nan nan nan nan nan nan nan nan nan nan nan nan nan nan nan nan nan nan nan nan nan nan nan nan nan nan nan nan nan nan nan nan nan nan nan nan nan nan nan nan nan nan nan nan
46 46 45 45 46 47 47 48 48 49 48 46 44 42 41 40 39 36 30 25 24 25 27 29 32 nan nan nan nan nan nan nan nan nan nan nan nan nan nan nan nan nan nan nan nan nan nan nan nan nan nan nan nan nan nan nan nan nan nan nan nan nan nan nan nan nan nan nan nan nan nan nan nan nan nan nan nan nan nan nan nan nan nan nan nan
46 47 48 48 48 48 48 49 48 48 47 47 45 43 41 37 33 28 25 27 29 30 31 33 nan nan nan nan nan nan nan nan nan nan nan nan nan nan nan nan nan nan nan nan nan nan nan nan nan nan nan nan nan nan nan nan nan nan nan nan nan nan nan nan nan nan nan nan nan nan nan nan nan nan nan nan nan nan nan nan nan nan nan nan nan
49 50 50 49 48 48 48 48 47 47 47 45 43 41 38 33 30 29 nan nan nan nan nan nan nan nan nan nan nan nan nan nan nan nan nan nan nan nan nan nan nan nan nan nan nan nan nan nan nan nan nan nan nan nan nan nan nan nan nan nan nan nan nan nan nan nan nan nan nan nan nan nan nan nan nan nan nan nan nan nan nan nan nan nan nan
50 51 51 50 49 48 46 44 43 43 42 40 38 36 nan nan nan nan nan nan nan nan nan nan nan nan nan nan nan nan nan nan nan nan nan nan nan nan nan nan nan nan nan nan nan nan nan nan nan nan nan nan nan nan nan nan nan nan nan nan nan nan nan nan nan nan nan nan nan nan nan nan nan nan nan nan nan nan nan nan nan nan nan nan nan
48 49 49 48 46 42 38 36 37 nan nan nan nan nan nan nan nan nan nan nan nan nan nan nan nan nan nan nan nan nan nan nan nan nan nan nan nan nan nan nan nan nan nan nan nan nan nan nan nan nan nan nan nan nan nan nan nan nan nan nan nan nan nan nan nan nan nan nan nan nan nan nan nan nan nan nan nan nan nan nan nan nan nan nan nan
42 41 41 39 37 33 nan 33 nan nan nan nan nan nan nan nan nan nan nan nan nan nan nan nan nan nan nan nan nan nan nan nan nan nan nan nan nan nan nan nan nan nan nan nan nan nan nan nan nan nan nan nan nan nan nan nan nan nan nan nan nan nan nan nan nan nan nan nan nan nan nan nan nan nan nan nan nan nan nan nan nan nan nan nan nan
35 33 nan nan nan nan nan nan nan nan nan nan nan nan nan nan nan nan nan nan nan nan nan nan nan nan nan nan nan nan nan nan nan nan nan nan nan nan nan nan nan nan nan nan nan nan nan nan nan nan nan nan nan nan nan nan nan nan nan nan nan nan nan nan nan nan nan nan nan nan nan nan nan nan nan nan nan nan nan nan nan nan nan nan nan
nan nan nan nan nan nan nan nan nan nan nan nan nan nan nan nan nan nan nan nan nan nan nan nan nan nan nan nan nan nan nan nan nan nan nan nan nan nan nan nan nan nan nan nan nan nan nan nan nan nan nan nan nan nan nan nan nan nan nan nan nan nan nan nan nan nan nan nan nan nan nan nan nan nan nan nan nan nan nan nan nan nan nan nan nan
nan nan nan nan nan nan nan nan nan nan nan nan nan nan nan nan nan nan nan nan nan nan nan nan nan nan nan nan nan nan nan nan nan nan nan nan nan nan nan nan nan nan nan nan nan nan nan nan nan nan nan nan nan nan nan nan nan nan nan nan nan nan nan nan nan nan nan nan nan nan nan nan nan nan nan nan nan nan nan nan nan nan nan nan nan
Wind_Direction
314 307 309 316 320 321 320 321 328 334 336 330 334 326 323 319 319 319 317 316 316 315 314 313 313 314 314 313 310 304 305 306 301 299 299 299 298 293 288 289 294 295 295 294 nan nan nan nan nan nan nan nan nan nan nan nan 308 307 310 314 317 318 317 316 316 nan nan nan nan nan nan nan nan nan nan nan nan nan nan nan 298 298 297 295 nan
314 310 311 312 321 317 318 320 327 327 330 333 336 325 322 319 318 317 317 316 314 314 312 312 313 312 311 309 305 302 304 304 301 297 296 297 298 294 291 291 289 290 290 291 291 289 nan 299 301 nan nan nan nan nan nan nan nan nan nan nan 318 318 316 315 314 nan nan nan nan nan nan nan nan nan nan nan 294 nan nan nan 296 nan nan 294 291
319 312 310 312 317 316 321 325 323 330 338 339 332 324 322 319 315 314 312 309 309 308 308 309 309 307 305 306 308 306 304 303 298 295 293 296 296 292 289 288 287 286 288 291 290 288 290 294 nan nan nan nan nan nan nan nan nan nan nan nan nan 318 315 314 312 nan nan nan nan nan nan nan nan nan nan nan 295 295 295 296 296 294 292 291 289
319 314 312 314 317 320 327 330 335 338 344 339 335 330 321 312 304 303 303 304 306 306 306 307 307 307 306 310 310 309 306 304 299 294 293 295 295 291 286 285 285 284 285 286 288 287 nan 290 nan nan nan nan nan nan nan nan nan 300 304 311 316 317 314 312 312 310 309 305 nan nan nan nan nan nan nan nan nan 298 298 298 297 294 291 289 287
319 317 318 322 324 328 337 336 335 339 340 335 330 320 306 298 297 301 308 313 313 311 310 313 313 313 313 313 310 308 306 304 302 298 293 292 292 290 287 286 286 285 283 285 286 283 283 nan nan nan nan nan nan nan 291 295 298 300 303 309 313 311 309 308 307 308 307 308 305 304 301 300 298 nan 297 297 298 301 nan 300 296 294 292 290 288
319 319 319 325 330 338 341 338 338 338 333 323 310 295 293 293 297 305 315 319 317 314 316 317 314 316 317 316 313 311 307 306 306 303 297 291 289 290 286 284 286 284 281 282 283 283 285 287 nan nan nan nan nan nan 287 290 295 299 304 309 310 308 307 306 306 307 308 308 306 304 302 nan nan 296 296 299 300 299 299 nan 296 294 292 290 287
312 319 322 329 335 341 339 337 332 324 314 300 294 300 309 312 308 310 313 318 319 316 315 313 312 314 316 316 317 315 312 307 305 303 299 292 289 288 285 283 286 282 277 278 279 280 282 285 287 288 nan 289 288 287 288 291 295 300 306 308 306 303 302 303 303 305 308 307 306 305 301 nan nan nan 297 299 300 300 298 295 294 291 290 287 284
310 319 324 329 333 337 333 325 317 315 310 308 306 302 310 314 316 320 321 327 328 328 325 319 314 314 316 317 317 317 315 310 307 306 302 297 291 286 282 282 287 282 273 273 276 277 280 284 nan nan nan 287 288 288 290 292 295 300 303 301 300 300 302 302 304 nan 305 305 304 301 299 nan nan nan 298 301 302 300 299 nan nan 289 287 286 283
313 320 324 327 328 324 323 320 319 313 309 312 310 316 323 327 333 337 335 337 333 331 324 319 315 315 316 316 317 318 313 309 307 306 306 303 297 288 281 284 291 283 272 271 275 278 280 282 nan nan nan 281 289 286 284 285 295 300 299 300 300 300 300 300 300 301 302 303 302 301 nan nan nan nan 296 298 298 nan 295 294 293 290 286 283 281
312 318 325 329 323 323 320 308 313 315 318 321 324 334 343 342 341 339 336 334 327 326 328 326 322 320 318 317 320 322 321 314 313 314 307 305 303 292 280 284 295 286 275 274 277 280 281 282 286 290 282 280 284 289 295 301 302 301 301 304 304 303 302 301 300 299 299 300 300 298 299 299 nan nan nan 296 298 298 298 295 292 287 282 279 278
314 321 325 327 324 323 315 313 316 322 321 323 327 334 337 333 333 335 335 332 328 326 327 328 327 323 320 318 321 323 323 323 nan 313 312 311 309 298 283 283 292 288 280 279 280 282 282 282 287 293 289 284 287 296 304 307 nan nan nan nan nan 307 304 303 301 300 nan 300 300 300 301 299 nan 294 294 nan nan 296 293 292 290 283 278 274 272
321 324 327 323 320 323 322 318 320 324 323 325 328 330 332 332 331 331 332 332 327 324 328 329 327 323 318 320 322 322 322 nan nan nan nan nan nan 305 288 284 288 286 277 279 283 283 283 285 290 289 285 285 286 296 305 310 nan nan nan nan nan nan nan 309 304 302 nan nan nan nan nan nan nan 293 295 296 295 293 293 293 288 281 279 277 276
323 323 322 321 321 322 323 318 322 327 328 328 328 327 329 330 331 329 329 328 325 325 328 329 327 323 321 324 325 322 319 nan nan nan nan nan nan nan 293 285 285 283 277 282 286 283 281 287 288 285 282 292 297 300 302 308 315 317 317 316 nan nan nan nan nan 310 301 302 302 302 300 295 292 293 295 294 293 294 293 292 284 280 280 281 283
316 318 319 320 322 321 323 318 322 327 330 329 327 329 330 332 331 327 324 324 326 327 330 331 327 325 325 326 321 318 315 nan nan nan nan nan nan nan 293 283 283 283 282 285 284 279 282 287 285 281 284 291 295 302 306 309 307 309 312 312 311 313 319 319 nan nan nan 305 303 302 299 294 292 292 295 295 293 292 291 nan 279 278 280 283 280
307 311 315 317 318 319 321 318 322 326 328 329 326 327 328 328 328 324 322 325 326 327 329 328 325 318 318 322 322 318 313 306 nan nan nan nan 310 304 291 284 279 275 279 285 286 280 279 274 268 278 285 292 297 300 306 304 304 304 305 304 nan nan nan nan nan nan 305 306 305 302 nan nan nan nan nan nan nan nan nan nan nan nan nan nan nan
303 306 309 313 315 317 319 318 322 325 326 327 328 326 325 325 323 319 320 323 324 323 325 325 323 316 317 321 319 nan 319 nan nan nan nan nan nan 295 295 287 276 275 282 288 280 277 280 281 282 280 289 296 294 294 294 298 301 303 nan nan nan nan nan nan nan nan nan nan nan nan nan nan nan nan nan nan nan nan nan nan nan nan nan nan nan
301 303 307 311 312 314 315 316 321 323 325 324 324 325 325 322 318 316 318 321 323 326 329 325 315 313 316 318 319 321 325 323 nan nan nan 307 297 nan nan nan 272 274 280 272 270 284 282 278 278 285 293 297 296 294 nan nan nan nan nan nan nan nan nan nan nan nan nan nan nan nan nan nan nan nan nan nan nan nan nan nan nan nan nan nan nan
298 302 304 306 308 309 309 311 316 319 321 322 320 320 318 317 317 317 320 315 318 320 317 316 313 311 314 318 324 327 327 319 nan nan nan nan nan 293 286 275 268 269 272 270 277 275 271 268 277 289 298 296 296 295 nan nan nan nan nan nan nan nan nan nan nan nan nan nan nan nan nan nan nan nan nan nan nan nan nan nan nan nan nan nan nan
296 300 301 300 302 304 306 307 310 312 315 316 313 312 309 307 310 308 308 304 304 307 310 308 308 312 315 318 321 nan nan 319 nan nan nan 296 296 292 284 277 270 267 266 272 280 286 279 285 301 296 290 292 296 nan nan nan nan nan nan nan nan nan nan nan nan nan nan nan nan nan nan nan nan 304 306 nan nan nan nan nan nan nan nan nan nan
292 294 295 296 297 300 302 304 305 306 308 309 305 304 301 307 313 312 315 310 307 308 310 312 314 315 317 318 316 320 321 310 nan nan 310 304 303 295 286 280 276 274 273 272 274 283 285 288 295 nan nan nan nan nan nan nan nan nan nan nan nan nan nan nan nan nan nan nan nan nan nan nan nan nan nan nan nan nan nan nan nan nan nan nan nan
287 288 289 291 294 299 300 299 302 304 303 301 299 297 300 307 310 311 311 310 305 307 311 313 316 317 318 317 315 314 311 310 313 317 313 306 302 291 281 280 274 273 275 279 288 291 292 297 297 nan nan nan nan nan nan nan nan nan nan nan nan nan nan nan nan nan nan nan nan nan nan nan nan nan nan nan nan nan nan nan nan nan nan nan nan
282 284 286 288 292 295 296 298 299 298 298 298 296 297 300 304 305 308 312 312 310 312 314 315 317 nan nan 317 312 308 307 311 308 311 310 300 293 292 286 283 281 279 287 301 302 295 297 296 292 nan nan nan nan nan nan nan nan nan 292 nan nan nan nan nan nan nan nan nan nan nan nan nan nan nan nan nan nan nan nan nan nan nan nan nan nan
279 282 283 285 288 289 292 296 298 296 300 304 306 303 301 304 306 309 311 312 314 316 317 317 317 nan 313 311 305 305 306 306 302 307 307 296 287 287 283 280 277 287 298 307 312 306 296 293 nan nan nan nan nan nan nan nan nan nan nan nan nan nan nan nan nan nan nan nan nan nan nan nan nan nan nan nan nan nan nan nan nan nan nan nan nan
279 282 283 285 286 287 290 295 296 297 301 304 306 307 307 305 306 307 308 310 312 312 313 312 nan 310 309 304 305 306 306 307 304 304 301 292 278 279 286 298 295 nan 299 nan 306 302 299 296 nan nan nan nan nan nan nan nan nan nan nan nan nan nan nan nan nan nan nan nan nan nan nan nan nan nan nan nan nan nan nan nan nan nan nan nan nan
282 284 287 287 288 289 291 293 294 296 298 301 303 304 306 305 307 308 308 310 311 310 310 308 307 nan 304 303 306 307 307 309 309 305 297 282 277 284 295 298 nan nan nan 305 298 291 nan nan nan nan nan nan nan nan nan nan nan nan nan nan nan nan nan nan nan nan nan nan nan nan nan nan nan nan nan nan nan nan nan nan nan nan nan nan nan
286 288 290 291 290 291 292 293 295 295 295 297 300 300 303 305 305 305 308 309 308 nan 305 304 nan 303 303 308 310 311 nan 313 315 303 292 285 286 288 nan nan nan nan nan nan nan nan nan nan nan nan nan nan nan nan nan nan nan nan nan nan nan nan nan nan nan nan nan nan nan nan nan nan nan nan nan nan nan nan nan nan nan nan nan nan nan
289 291 291 290 290 291 293 293 292 291 292 294 297 300 nan 305 304 305 309 nan nan 306 304 302 300 300 304 310 313 313 315 318 319 309 299 295 nan nan nan nan nan nan nan nan nan nan nan nan nan nan nan nan nan nan nan nan nan nan nan nan nan nan nan nan nan nan nan nan nan nan nan nan nan nan nan nan nan nan nan nan nan nan nan nan nan
292 292 291 290 291 291 291 290 289 288 290 293 297 301 301 302 303 305 309 308 308 306 304 301 300 301 303 306 311 315 317 321 319 314 306 303 nan nan nan nan nan nan nan nan nan nan nan nan nan nan nan nan nan nan nan nan nan nan nan nan nan nan nan nan nan nan nan nan nan nan nan nan nan nan nan nan nan nan nan nan nan nan nan nan nan
289 291 290 290 289 288 287 288 287 287 290 286 281 282 287 294 299 304 291 294 297 302 305 301 298 297 300 305 311 317 318 317 316 304 301 299 299 304 305 303 300 296 nan nan nan nan nan nan nan nan nan nan nan nan nan nan nan nan nan nan nan nan nan nan nan nan nan nan nan nan nan nan nan nan nan nan nan nan nan nan nan nan nan nan nan
290 290 290 288 286 286 285 286 286 288 291 290 289 nan nan nan nan nan nan 286 285 284 284 293 293 296 304 306 304 311 314 308 296 295 295 nan nan nan nan nan nan nan nan nan nan nan nan nan nan nan nan nan nan nan nan nan nan nan nan nan nan nan nan nan nan nan nan nan nan nan nan nan nan nan nan nan nan nan nan nan nan nan nan nan nan
288 288 287 285 284 286 286 286 286 288 290 292 294 294 nan nan nan nan nan 288 286 284 nan 286 289 294 298 304 298 286 287 294 297 296 nan nan nan nan nan nan nan nan nan nan nan nan nan nan nan nan nan nan nan nan nan nan nan nan nan nan nan nan nan nan nan nan nan nan nan nan nan nan nan nan nan nan nan nan nan nan nan nan nan nan nan
285 285 284 283 282 285 286 286 289 290 290 292 296 296 294 294 nan nan 282 284 285 nan nan nan nan nan nan 295 nan nan nan 294 297 nan nan nan nan nan nan nan nan nan nan nan nan nan nan nan nan nan nan nan nan nan nan nan nan nan nan nan nan nan nan nan nan nan nan nan nan nan nan nan nan nan nan nan nan nan nan nan nan nan nan nan nan
284 283 282 282 284 287 288 289 291 292 293 295 296 296 296 297 297 nan nan 285 nan nan nan nan nan nan nan nan nan nan nan 299 nan nan nan nan nan nan nan nan nan nan nan nan nan nan nan nan nan nan nan nan nan nan nan nan nan nan nan nan nan nan nan nan nan nan nan nan nan nan nan nan nan nan nan nan nan nan nan nan nan nan nan nan nan
280 280 281 283 285 286 287 288 291 292 294 297 297 298 298 298 298 297 nan nan nan nan nan nan nan nan nan nan nan nan nan nan nan nan nan nan nan nan nan nan nan nan nan nan nan nan nan nan nan nan nan nan nan nan nan nan nan nan nan nan nan nan nan nan nan nan nan nan nan nan nan nan nan nan nan nan nan nan nan nan nan nan nan nan nan
275 272 277 282 284 286 287 289 291 293 295 296 297 298 297 297 297 298 299 300 300 nan nan nan nan nan nan nan nan nan nan nan nan nan nan nan nan nan nan nan nan nan nan nan nan nan nan nan nan nan nan nan nan nan nan nan nan nan nan nan nan nan nan nan nan nan nan nan nan nan nan nan nan nan nan nan nan nan nan nan nan nan nan nan nan
276 278 280 282 283 285 286 289 290 292 294 295 296 297 297 298 299 299 300 299 298 296 nan nan nan nan nan nan nan nan nan nan nan nan nan nan nan nan nan nan nan nan nan nan nan nan nan nan nan nan nan nan nan nan nan nan nan nan nan nan nan nan nan nan nan nan nan nan nan nan nan nan nan nan nan nan nan nan nan nan nan nan nan nan nan
279 280 282 282 283 284 285 287 290 291 292 293 295 296 296 296 296 297 298 298 296 295 293 nan nan nan nan nan nan nan nan nan nan nan nan nan nan nan nan nan nan nan nan nan nan nan nan nan nan nan nan nan nan nan nan nan nan nan nan nan nan nan nan nan nan nan nan nan nan nan nan nan nan nan nan nan nan nan nan nan nan nan nan nan nan
276 278 281 283 284 284 287 289 288 289 292 293 293 294 294 293 294 295 295 294 294 294 294 nan nan nan nan nan nan nan nan nan nan nan nan nan nan nan nan nan nan nan nan nan nan nan nan nan nan nan nan nan nan nan nan nan nan nan nan nan nan nan nan nan nan nan nan nan nan nan nan nan nan nan nan nan nan nan nan nan nan nan nan nan nan
277 272 272 276 281 285 288 290 290 292 292 294 293 293 292 293 293 293 292 292 294 296 296 297 301 302 nan nan nan nan nan nan nan nan nan nan nan nan nan nan nan nan nan nan nan nan nan nan nan nan nan nan nan nan nan nan nan nan nan nan nan nan nan nan nan nan nan nan nan nan nan nan nan nan nan nan nan nan nan nan nan nan nan nan nan
280 283 283 284 286 286 287 288 289 nan 290 292 291 292 292 292 291 290 291 292 295 296 297 299 302 302 300 nan nan nan nan nan nan nan nan nan nan nan nan nan nan nan nan nan nan nan nan nan nan nan nan nan nan nan nan nan nan nan nan nan nan nan nan nan nan nan nan nan nan nan nan nan nan nan nan nan nan nan nan nan nan nan nan nan nan
281 279 281 284 281 286 286 287 288 288 288 289 290 291 290 290 289 290 291 291 292 294 295 298 300 301 303 nan nan nan nan nan nan nan nan nan nan nan nan nan nan nan nan nan nan nan nan nan nan nan nan nan nan nan nan nan nan nan nan nan nan nan nan nan nan nan nan nan nan nan nan nan nan nan nan nan nan nan nan nan nan nan nan nan nan
282 283 284 285 286 287 286 287 285 285 287 290 291 290 289 290 290 290 288 288 290 293 298 302 302 301 nan nan nan nan nan nan nan nan nan nan nan nan nan nan nan nan nan nan nan nan nan nan nan nan nan nan nan nan nan nan nan nan nan nan nan nan nan nan nan nan nan nan nan nan nan nan nan nan nan nan nan nan nan nan nan nan nan nan nan
283 283 283 284 286 286 287 287 288 289 290 290 286 282 284 288 291 290 290 289 290 297 300 301 302 nan nan nan nan nan nan nan nan nan nan nan nan nan nan nan nan nan nan nan nan nan nan nan nan nan nan nan nan nan nan nan nan nan nan nan nan nan nan nan nan nan nan nan nan nan nan nan nan nan nan nan nan nan nan nan nan nan nan nan nan
283 284 284 283 284 286 287 289 288 288 286 282 281 282 285 286 284 285 289 295 298 300 299 299 nan nan nan nan nan nan nan nan nan nan nan nan nan nan nan nan nan nan nan nan nan nan nan nan nan nan nan nan nan nan nan nan nan nan nan nan nan nan nan nan nan nan nan nan nan nan nan nan nan nan nan nan nan nan nan nan nan nan nan nan nan
282 282 282 283 284 283 283 283 284 283 283 282 281 283 285 284 285 290 nan nan nan nan nan nan nan nan nan nan nan nan nan nan nan nan nan nan nan nan nan nan nan nan nan nan nan nan nan nan nan nan nan nan nan nan nan nan nan nan nan nan nan nan nan nan nan nan nan nan nan nan nan nan nan nan nan nan nan nan nan nan nan nan nan nan nan
281 282 282 282 282 282 282 283 282 281 280 279 281 283 nan nan nan nan nan nan nan nan nan nan nan nan nan nan nan nan nan nan nan nan nan nan nan nan nan nan nan nan nan nan nan nan nan nan nan nan nan nan nan nan nan nan nan nan nan nan nan nan nan nan nan nan nan nan nan nan nan nan nan nan nan nan nan nan nan nan nan nan nan nan nan
278 278 278 279 280 282 283 282 280 nan nan nan nan nan nan nan nan nan nan nan nan nan nan nan nan nan nan nan nan nan nan nan nan nan nan nan nan nan nan nan nan nan nan nan nan nan nan nan nan nan nan nan nan nan nan nan nan nan nan nan nan nan nan nan nan nan nan nan nan nan nan nan nan nan nan nan nan nan nan nan nan nan nan nan nan
280 281 282 282 282 279 nan 274 nan nan nan nan nan nan nan nan nan nan nan nan nan nan nan nan nan nan nan nan nan nan nan nan nan nan nan nan nan nan nan nan nan nan nan nan nan nan nan nan nan nan nan nan nan nan nan nan nan nan nan nan nan nan nan nan nan nan nan nan nan nan nan nan nan nan nan nan nan nan nan nan nan nan nan nan nan
283 283 nan nan nan nan nan nan nan nan nan nan nan nan nan nan nan nan nan nan nan nan nan nan nan nan nan nan nan nan nan nan nan nan nan nan nan nan nan nan nan nan nan nan nan nan nan nan nan nan nan nan nan nan nan nan nan nan nan nan nan nan nan nan nan nan nan nan nan nan nan nan nan nan nan nan nan nan nan nan nan nan nan nan nan
nan nan nan nan nan nan nan nan nan nan nan nan nan nan nan nan nan nan nan nan nan nan nan nan nan nan nan nan nan nan nan nan nan nan nan nan nan nan nan nan nan nan nan nan nan nan nan nan nan nan nan nan nan nan nan nan nan nan nan nan nan nan nan nan nan nan nan nan nan nan nan nan nan nan nan nan nan nan nan nan nan nan nan nan nan
nan nan nan nan nan nan nan nan nan nan nan nan nan nan nan nan nan nan nan nan nan nan nan nan nan nan nan nan nan nan nan nan nan nan nan nan nan nan nan nan nan nan nan nan nan nan nan nan nan nan nan nan nan nan nan nan nan nan nan nan nan nan nan nan nan nan nan nan nan nan nan nan nan nan nan nan nan nan nan nan nan nan nan nan nan